User: anonymous   Login
Location: Hamburg
(53.5500°N, 10.0000°E)
Time: 11:14:16
(UTC+01:00)
Language:

Courier 1B - Orbit

View from above orbital plane
View from above orbital plane
View from above satellite
View from above satellite

Ground track
Ground track

The orbit data is extracted from the following two-line orbital elements,

1 00058U 60013A   16337.98792778  .00000096  00000-0  13607-4 0  9996
2 00058  28.3257 171.5681 0165005 168.9530 191.4698 13.46306374764844
Epoch (UTC): 02 December 2016 23:42:36
Eccentricity: 0.0165005
inclination: 28.3257°
perigee height: 963 km
apogee height: 1209 km
right ascension of ascending node: 171.5681°
argument of perigee: 168.9530°
revolutions per day: 13.46306374
mean anomaly at epoch: 191.4698°
orbit number at epoch: 76484

The dashed part of the orbit path shows where the satellite is in the earth's shadow,  

DLR